�������l�o���
Date,Time,MP-1(��Sv/h),MP-2(��Sv/h),MP-3(��Sv/h),MP-4(��Sv/h),MP-5(��Sv/h),MP-6(��Sv/h),MP-7(��Sv/h),MP-8(��Sv/h),����,����(m/s),���J
2018/06/27,00:00,0.899,1.271,0.885,1.591,1.116,0.480,0.835,0.796,�k,0.6,��
2018/06/27,00:10,0.899,1.272,0.883,1.586,1.116,0.482,0.836,0.795,-,CALM,��
2018/06/27,00:20,0.898,1.271,0.886,1.589,1.120,0.480,0.835,0.796,���k��,0.6,��
2018/06/27,00:30,0.898,1.270,0.884,1.592,1.116,0.481,0.835,0.796,�k��,0.9,��
2018/06/27,00:40,0.898,1.270,0.885,1.589,1.119,0.480,0.836,0.795,�k�k��,1.4,��
2018/06/27,00:50,0.898,1.273,0.882,1.590,1.116,0.482,0.836,0.796,-,CALM,��
2018/06/27,01:00,0.900,1.274,0.886,1.590,1.117,0.481,0.836,0.796,-,CALM,��
2018/06/27,01:10,0.898,1.272,0.884,1.587,1.119,0.480,0.837,0.796,��쓌,0.6,��
2018/06/27,01:20,0.899,1.273,0.884,1.590,1.118,0.481,0.838,0.797,��,0.9,��
2018/06/27,01:30,0.898,1.272,0.885,1.588,1.118,0.480,0.836,0.796,-,CALM,��
2018/06/27,01:40,0.898,1.272,0.885,1.590,1.116,0.481,0.836,0.796,�쓌,0.6,��
2018/06/27,01:50,0.899,1.270,0.886,1.590,1.118,0.481,0.836,0.796,��,1.5,��
2018/06/27,02:00,0.900,1.271,0.883,1.591,1.119,0.480,0.836,0.797,�쓌,0.6,��
2018/06/27,02:10,0.897,1.272,0.886,1.591,1.116,0.481,0.835,0.796,-,CALM,��
2018/06/27,02:20,0.897,1.272,0.887,1.589,1.116,0.480,0.837,0.794,��쓌,0.6,�L
2018/06/27,02:30,0.897,1.272,0.883,1.590,1.117,0.482,0.838,0.796,�쓌,1.1,�L
2018/06/27,02:40,0.899,1.271,0.885,1.589,1.115,0.481,0.835,0.794,��,0.9,�L
2018/06/27,02:50,0.898,1.272,0.886,1.588,1.117,0.482,0.837,0.795,�쓌,3.2,�L
2018/06/27,03:00,0.899,1.270,0.885,1.591,1.116,0.481,0.837,0.796,�쓌,2.5,�L
2018/06/27,03:10,0.900,1.270,0.886,1.590,1.117,0.481,0.834,0.795,��쓌,2.2,�L
2018/06/27,03:20,0.898,1.269,0.886,1.590,1.115,0.482,0.836,0.796,��쓌,2.6,�L
2018/06/27,03:30,0.899,1.267,0.887,1.588,1.117,0.481,0.835,0.797,��,3.2,�L
2018/06/27,03:40,0.899,1.269,0.886,1.591,1.112,0.482,0.835,0.796,��쐼,1.9,��
2018/06/27,03:50,0.898,1.271,0.886,1.590,1.114,0.481,0.836,0.795,�쐼,2.2,��
2018/06/27,04:00,0.900,1.267,0.885,1.589,1.116,0.483,0.838,0.795,�쐼,1.7,��
2018/06/27,04:10,0.899,1.268,0.885,1.592,1.116,0.483,0.837,0.797,��쐼,2.0,�L
2018/06/27,04:20,0.898,1.271,0.886,1.590,1.115,0.482,0.837,0.796,�쐼,1.1,�L
2018/06/27,04:30,0.897,1.270,0.885,1.587,1.116,0.482,0.836,0.795,��,1.7,��
2018/06/27,04:40,0.899,1.269,0.883,1.591,1.118,0.483,0.836,0.794,��쐼,2.5,��
2018/06/27,04:50,0.896,1.266,0.885,1.589,1.119,0.482,0.837,0.796,��,3.0,��
2018/06/27,05:00,0.896,1.268,0.884,1.590,1.115,0.482,0.837,0.793,��,3.3,��
2018/06/27,05:10,0.896,1.270,0.884,1.590,1.117,0.483,0.836,0.796,��,3.9,��
2018/06/27,05:20,0.900,1.266,0.887,1.590,1.118,0.482,0.838,0.796,��,3.9,��
2018/06/27,05:30,0.897,1.265,0.886,1.587,1.118,0.482,0.838,0.795,��,3.3,��
2018/06/27,05:40,0.898,1.267,0.884,1.590,1.117,0.483,0.837,0.798,��,3.2,��
2018/06/27,05:50,0.897,1.269,0.885,1.590,1.116,0.483,0.837,0.798,��쓌,2.6,��
2018/06/27,06:00,0.897,1.268,0.885,1.590,1.114,0.479,0.838,0.796,��쓌,1.7,��
2018/06/27,06:10,0.897,1.268,0.886,1.588,1.116,0.481,0.838,0.796,��쓌,2.8,��
2018/06/27,06:20,0.896,1.268,0.884,1.589,1.116,0.482,0.836,0.797,��,5.3,��
2018/06/27,06:30,0.900,1.266,0.886,1.588,1.114,0.482,0.838,0.796,��,6.4,��
2018/06/27,06:40,0.897,1.263,0.885,1.587,1.114,0.481,0.836,0.795,��,5.8,��
2018/06/27,06:50,0.901,1.264,0.883,1.587,1.113,0.481,0.838,0.796,��,6.5,��
2018/06/27,07:00,0.898,1.267,0.884,1.585,1.112,0.480,0.837,0.794,��,7.2,��
2018/06/27,07:10,0.898,1.264,0.885,1.589,1.112,0.481,0.838,0.797,��,6.1,��
2018/06/27,07:20,0.897,1.266,0.883,1.587,1.112,0.481,0.836,0.796,��,5.3,��
2018/06/27,07:30,0.897,1.266,0.883,1.587,1.115,0.481,0.837,0.794,��,6.1,��
2018/06/27,07:40,0.898,1.261,0.884,1.587,1.112,0.480,0.836,0.796,��,8.1,��
2018/06/27,07:50,0.897,1.262,0.882,1.587,1.113,0.479,0.836,0.793,��,7.4,��
2018/06/27,08:00,0.899,1.266,0.883,1.590,1.114,0.479,0.836,0.795,��,8.7,��
2018/06/27,08:10,0.897,1.266,0.884,1.587,1.111,0.480,0.836,0.792,��,7.7,��
2018/06/27,08:20,0.900,1.266,0.883,1.587,1.110,0.480,0.838,0.794,��,8.4,��
2018/06/27,08:30,0.898,1.265,0.880,1.590,1.109,0.480,0.837,0.794,��,7.1,��
2018/06/27,08:40,0.898,1.266,0.880,1.591,1.109,0.479,0.836,0.793,��,5.6,��
2018/06/27,08:50,0.900,1.265,0.883,1.590,1.112,0.481,0.836,0.795,��,6.1,�L
2018/06/27,09:00,0.901,1.264,0.882,1.590,1.113,0.479,0.838,0.794,��,6.6,�L
2018/06/27,09:10,0.898,1.264,0.883,1.591,1.113,0.480,0.837,0.794,��,6.6,�L
2018/06/27,09:20,0.899,1.264,0.884,1.588,1.114,0.480,0.836,0.795,��,6.3,�L
2018/06/27,09:30,0.902,1.266,0.883,1.590,1.114,0.481,0.837,0.794,��,6.4,�L
2018/06/27,09:40,0.898,1.265,0.885,1.588,1.112,0.482,0.838,0.793,��,7.7,�L
2018/06/27,09:50,0.899,1.267,0.882,1.591,1.112,0.480,0.838,0.794,��,6.8,�L
2018/06/27,10:00,0.900,1.266,0.883,1.591,1.113,0.482,0.838,0.794,��,7.4,�L
2018/06/27,10:10,0.902,1.267,0.884,1.589,1.114,0.482,0.837,0.795,��,8.8,�L
2018/06/27,10:20,0.899,1.264,0.884,1.589,1.116,0.482,0.838,0.796,��,9.0,�L
2018/06/27,10:30,0.900,1.269,0.881,1.591,1.115,0.482,0.838,0.794,��,8.6,��
2018/06/27,10:40,0.900,1.269,0.883,1.589,1.116,0.481,0.837,0.796,��,6.0,��
2018/06/27,10:50,0.898,1.267,0.884,1.589,1.116,0.482,0.840,0.796,��,6.5,��
2018/06/27,11:00,0.900,1.267,0.885,1.591,1.116,0.481,0.837,0.795,��,7.7,��
2018/06/27,11:10,0.902,1.268,0.883,1.591,1.112,0.482,0.837,0.795,��,5.6,��
2018/06/27,11:20,0.899,1.266,0.883,1.589,1.114,0.482,0.838,0.795,��,4.8,��
2018/06/27,11:30,0.900,1.265,0.886,1.591,1.114,0.481,0.837,0.794,��,4.4,��
2018/06/27,11:40,0.901,1.265,0.885,1.591,1.115,0.482,0.836,0.795,��,4.2,��
2018/06/27,11:50,0.901,1.269,0.885,1.593,1.115,0.482,0.838,0.796,��,3.5,��
2018/06/27,12:00,0.900,1.267,0.886,1.593,1.116,0.480,0.835,0.796,��,5.2,��
2018/06/27,12:10,0.901,1.269,0.885,1.593,1.117,0.482,0.837,0.795,��,5.5,��
2018/06/27,12:20,0.901,1.269,0.885,1.590,1.116,0.482,0.838,0.797,��,5.4,��
2018/06/27,12:30,0.900,1.268,0.884,1.587,1.115,0.481,0.837,0.797,��,4.7,��
2018/06/27,12:40,0.902,1.268,0.886,1.591,1.119,0.481,0.839,0.797,��,3.8,��
2018/06/27,12:50,0.902,1.269,0.885,1.591,1.117,0.484,0.839,0.797,��쐼,3.2,��
2018/06/27,13:00,0.903,1.269,0.885,1.591,1.117,0.482,0.837,0.796,�쐼,3.5,��
2018/06/27,13:10,0.904,1.267,0.886,1.592,1.116,0.483,0.837,0.796,��쐼,3.6,��
2018/06/27,13:20,0.904,1.272,0.885,1.593,1.116,0.481,0.838,0.796,�쐼,2.5,��
2018/06/27,13:30,0.902,1.270,0.887,1.591,1.117,0.483,0.840,0.795,�쐼,3.4,��
2018/06/27,13:40,0.908,1.270,0.888,1.591,1.117,0.482,0.837,0.796,�쐼,4.4,��
2018/06/27,13:50,0.903,1.271,0.891,1.592,1.118,0.484,0.841,0.795,�쐼,3.0,��
2018/06/27,14:00,0.902,1.270,0.889,1.593,1.119,0.486,0.837,0.795,���쐼,2.9,��
2018/06/27,14:10,0.905,1.272,0.888,1.591,1.118,0.484,0.840,0.794,�쐼,3.9,��
2018/06/27,14:20,0.905,1.274,0.889,1.596,1.120,0.485,0.841,0.795,���쐼,3.3,��
2018/06/27,14:30,0.905,1.269,0.890,1.596,1.120,0.485,0.840,0.794,���쐼,2.8,��
2018/06/27,14:40,0.907,1.273,0.890,1.593,1.120,0.484,0.839,0.795,�쐼,4.5,��
2018/06/27,14:50,0.907,1.270,0.889,1.594,1.121,0.486,0.842,0.793,���쐼,5.8,�L
2018/06/27,15:00,0.907,1.273,0.888,1.593,1.120,0.487,0.839,0.795,���쐼,7.0,�L
2018/06/27,15:10,0.909,1.270,0.888,1.595,1.117,0.486,0.841,0.796,���쐼,4.3,�L
2018/06/27,15:20,0.909,1.272,0.887,1.595,1.121,0.485,0.841,0.794,���쐼,4.8,�L
2018/06/27,15:30,0.908,1.271,0.890,1.593,1.119,0.486,0.840,0.795,��쐼,4.8,��
2018/06/27,15:40,0.904,1.273,0.888,1.594,1.121,0.486,0.838,0.795,�쐼,3.7,��
2018/06/27,15:50,0.906,1.272,0.889,1.592,1.119,0.485,0.840,0.796,��쐼,3.3,�L
2018/06/27,16:00,0.907,1.273,0.890,1.594,1.120,0.486,0.841,0.797,�쐼,5.9,�L
2018/06/27,16:10,0.908,1.270,0.888,1.594,1.120,0.485,0.841,0.797,�쐼,3.1,�L
2018/06/27,16:20,0.907,1.271,0.890,1.591,1.122,0.487,0.839,0.797,��쐼,4.1,�L
2018/06/27,16:30,0.906,1.272,0.888,1.590,1.122,0.487,0.842,0.796,��쐼,3.4,�L
2018/06/27,16:40,0.907,1.272,0.889,1.596,1.122,0.488,0.842,0.796,��,3.7,��
2018/06/27,16:50,0.906,1.272,0.891,1.595,1.122,0.487,0.841,0.798,��,2.0,��
2018/06/27,17:00,0.909,1.273,0.889,1.593,1.121,0.487,0.843,0.799,���쐼,1.4,��
2018/06/27,17:10,0.907,1.272,0.888,1.595,1.122,0.485,0.840,0.799,���쐼,3.1,��
2018/06/27,17:20,0.907,1.272,0.889,1.594,1.120,0.485,0.841,0.799,���쐼,2.5,��
2018/06/27,17:30,0.905,1.271,0.889,1.594,1.119,0.485,0.838,0.798,�쐼,2.6,��
2018/06/27,17:40,0.907,1.274,0.889,1.594,1.119,0.486,0.842,0.799,�쐼,2.6,��
2018/06/27,17:50,0.906,1.271,0.889,1.593,1.121,0.486,0.841,0.800,�쐼,2.8,��
2018/06/27,18:00,0.904,1.269,0.889,1.593,1.119,0.487,0.840,0.797,��,3.5,��
2018/06/27,18:10,0.901,1.271,0.886,1.590,1.118,0.486,0.841,0.797,��,3.3,��
2018/06/27,18:20,0.901,1.273,0.889,1.592,1.117,0.485,0.837,0.797,��쐼,2.8,��
2018/06/27,18:30,0.900,1.271,0.888,1.594,1.122,0.484,0.837,0.797,��쐼,4.0,��
2018/06/27,18:40,0.901,1.270,0.887,1.592,1.116,0.485,0.837,0.797,��쐼,5.0,��
2018/06/27,18:50,0.903,1.268,0.889,1.591,1.117,0.486,0.840,0.797,��,7.8,��
2018/06/27,19:00,0.902,1.268,0.889,1.594,1.119,0.485,0.840,0.798,��,7.2,��
2018/06/27,19:10,0.901,1.272,0.889,1.592,1.118,0.485,0.840,0.797,��쐼,6.2,��
2018/06/27,19:20,0.902,1.272,0.887,1.594,1.119,0.485,0.839,0.795,��쐼,6.3,��
2018/06/27,19:30,0.904,1.270,0.889,1.592,1.119,0.483,0.838,0.798,��쐼,6.2,��
2018/06/27,19:40,0.900,1.273,0.890,1.594,1.119,0.486,0.839,0.796,��쐼,6.1,��
2018/06/27,19:50,0.900,1.270,0.890,1.593,1.119,0.487,0.838,0.797,��쐼,5.6,��
2018/06/27,20:00,0.904,1.271,0.888,1.593,1.118,0.484,0.839,0.796,��쐼,5.3,��
2018/06/27,20:10,0.901,1.268,0.889,1.591,1.118,0.485,0.839,0.798,�쐼,5.3,��
2018/06/27,20:20,0.901,1.272,0.888,1.591,1.118,0.484,0.838,0.797,�쐼,5.1,��
2018/06/27,20:30,0.901,1.270,0.887,1.589,1.115,0.483,0.838,0.797,�쐼,4.6,��
2018/06/27,20:40,0.900,1.269,0.890,1.594,1.117,0.485,0.838,0.798,�쐼,3.8,��
2018/06/27,20:50,0.905,1.268,0.890,1.594,1.116,0.484,0.839,0.797,�쐼,3.1,��
2018/06/27,21:00,0.903,1.271,0.888,1.592,1.118,0.483,0.838,0.796,��쐼,3.5,��
2018/06/27,21:10,0.901,1.271,0.888,1.596,1.117,0.485,0.841,0.796,��쐼,2.9,��
2018/06/27,21:20,0.901,1.270,0.890,1.592,1.117,0.484,0.836,0.797,��,2.0,��
2018/06/27,21:30,0.904,1.273,0.890,1.592,1.120,0.483,0.838,0.797,��,2.2,��
2018/06/27,21:40,0.905,1.274,0.888,1.591,1.118,0.484,0.838,0.798,��쐼,3.2,��
2018/06/27,21:50,0.902,1.270,0.888,1.594,1.119,0.485,0.840,0.797,��쐼,3.4,��
2018/06/27,22:00,0.905,1.271,0.889,1.592,1.118,0.485,0.840,0.798,��,4.4,��
2018/06/27,22:10,0.906,1.271,0.888,1.593,1.121,0.485,0.840,0.797,��쐼,4.1,��
2018/06/27,22:20,0.905,1.270,0.890,1.594,1.119,0.485,0.840,0.796,��쐼,3.6,��
2018/06/27,22:30,0.905,1.268,0.888,1.594,1.115,0.484,0.840,0.798,��쐼,2.8,��
2018/06/27,22:40,0.905,1.268,0.890,1.595,1.118,0.485,0.840,0.797,�쐼,2.6,��
2018/06/27,22:50,0.901,1.273,0.888,1.593,1.118,0.484,0.840,0.799,��쐼,2.3,��
2018/06/27,23:00,0.903,1.271,0.889,1.592,1.119,0.484,0.838,0.798,�쐼,4.3,��
2018/06/27,23:10,0.906,1.271,0.889,1.592,1.120,0.484,0.839,0.799,�쐼,3.5,��
2018/06/27,23:20,0.901,1.271,0.891,1.595,1.120,0.485,0.840,0.798,�쐼,3.1,��
2018/06/27,23:30,0.903,1.271,0.891,1.594,1.120,0.484,0.838,0.797,��쐼,2.3,��
2018/06/27,23:40,0.903,1.268,0.889,1.592,1.117,0.484,0.838,0.797,��쓌,1.1,��
2018/06/27,23:50,0.904,1.270,0.889,1.595,1.119,0.484,0.840,0.798,�쓌,1.2,��
